Volver al catálogo

STARLINK-11677

ActivoComunicacionesVLEO
NORAD 63751·PAYLOAD·🇺🇸 United States

Lanzado Apr 29, 2025 desde Cape Canaveral Space Force Station

Loading…

Próximos Pases (próximas 24 horas)

TLE

ActualizadoSource: CelesTrak SupGP

Época: Sep 14, 2026, 21:33 UTC

1 63751C 25089A   26257.89840278  .00054266  00000+0  42163-3 0  2572
2 63751  43.0006 232.0687 0001486 264.2223 311.6358 15.70803786    18

Sigue STARLINK-11677 en tiempo real con AllMySat

Download on the App Store